Tracking 30995 objects as of 7-Jul-2025
HD Live streaming from Space Station
objects crossing your sky now

STARLINK-31620

Track STARLINK-31620 now!
10-day predictions


NORAD ID: 59460
Int'l Code: 2024-068F
Perigee: 489.6 km
Apogee: 490.8 km
Inclination: 43.0 °
Period: 94.3 minutes
Semi major axis: 6861 km
RCS: Unknown
Launch date: April 10, 2024
Source: United States (US)
Launch site: AIR FORCE EASTERN TEST RANGE (AFETR)
Your satellite tracking list
Your tracking list is empty




NASA's NSSDC Master Catalog

Two Line Element Set (TLE):
1 59460U 24068F   25187.45023093  .00002403  00000-0  96836-4 0  9998
2 59460  42.9980 341.6892 0000882 293.5972  66.4787 15.27577128 70905
Source of the keplerian elements: AFSPC